Overview Statistics Trail Chart Weather Telemetry Raw packets
 

This is the latest recevied weather packets stored in our database for station/object WA6OOO. If no packets are shown the sender has not sent any weather packets the latest 10 day(s).

<< 46 47 48 49 50 51 52 >>
Time Temp. Humidity Pressure Rain* Wind** Luminosity Snow
1788365968 21.67° C 60% 1019.6 hPa 0 mm - 357 W/m² -
1788365664 22.22° C 59% 1019.7 hPa 0 mm - 341 W/m² -
1788365360 21.67° C 60% 1019.5 hPa 0 mm - 326 W/m² -
1788365055 21.67° C 60% 1019.6 hPa 0 mm - 311 W/m² -
1788364753 20.56° C 59% 1019.7 hPa 0 mm - 296 W/m² -
1788364448 20.56° C 58% 1019.6 hPa 0 mm - 282 W/m² -
1788364142 20° C 61% 1019.5 hPa 0 mm - 267 W/m² -
1788363838 20.56° C 63% 1019.5 hPa 0 mm - 251 W/m² -
1788363537 20.56° C 62% 1019.6 hPa 0 mm - 236 W/m² -
1788363251 20.56° C 58% 1019.7 hPa 0 mm - 221 W/m² -
1788362932 20.56° C 57% 1019.7 hPa 0 mm - 205 W/m² -
1788362628 20° C 61% 1019.6 hPa 0 mm - 41 W/m² -
1788362323 19.44° C 61% 1019.7 hPa 0 mm - 177 W/m² -
1788362018 19.44° C 62% 1019.5 hPa 0 mm - 39 W/m² -
1788361713 19.44° C 62% 1019.6 hPa 0 mm - 37 W/m² -
1788361409 18.89° C 64% 1019.6 hPa 0 mm - 36 W/m² -
1788361109 18.89° C 66% 1019.9 hPa 0 mm - 38 W/m² -
1788360804 18.33° C 67% 1019.6 hPa 0 mm - 34 W/m² -
1788360500 17.78° C 69% 1019.7 hPa 0 mm - 33 W/m² -
1788360196 17.78° C 70% 1019.7 hPa 0 mm - 35 W/m² -
1788359890 17.78° C 70% 1019.7 hPa 0 mm - 36 W/m² -
1788359585 17.22° C 72% 1019.6 hPa 0 mm - 64 W/m² -
1788359281 17.22° C 75% 1019.4 hPa 0 mm - 55 W/m² -
1788358976 16.67° C 78% 1019.4 hPa 0 mm - 47 W/m² -
1788358676 16.67° C 79% 1019.4 hPa 0 mm - 41 W/m² -

* Rain latest hour (hover to see other rain measurements)
** Current wind speed in m/s (hover to see current wind gust speed)